www.pogodaiklimat.ru

Погода и климат >> Архив погоды >> Швеция >> Tarfala


ПОГОДА в Tarfala

  • Прогноз погоды в Tarfala
  • Монитор погоды в Tarfala
  • Климат города

АРХИВ ПОГОДЫ в Tarfala

Время (UTC), дата Ветер
(напр.,м/с)
 
Видим.   Явления Облачность Т
(С)
Тd
(С)
f
(%)
Тe
(С)
Тes
(С)
Комфортность P
(гПа)
Po
(гПа)
Тmin
(С)
Tmax
(С)
R
(мм)
R24
(мм)
S
(см)
02 16.07 Ю 4
{8}
н/о н/о +8.9 +5.1 77 +6 +6 1017.2 886.3
01 16.07 ЮВ 2
{14}
н/о н/о +9.0 +4.7 74 +7 +7 1016.6 885.8
03 16.07 Ю 3
{7}
н/о н/о +8.8 +5.2 78 +6 +6 1017.6 886.6
04 16.07 ЮВ 1
{6}
н/о н/о +9.0 +4.9 75 +9 +9 1017.8 886.9
05 16.07 СЗ 2
{4}
н/о н/о +10.6 +4.7 67 +9 +9 1017.1 887.0
06 16.07 СЗ 1
{3}
н/о н/о +12.0 +4.8 61 +12 +12 1016.5 887.1 +8.6 +12.8
08 16.07 Ю 2
{4}
н/о н/о +14.3 +4.6 52 +14 +14 1015.9 887.6
07 16.07 СЗ 2
{4}
н/о н/о +12.3 +5.1 61 +12 +12 1016.7 887.4
09 16.07 ЮЗ 1
{4}
н/о н/о +15.7 +4.5 47 +17 +17 1015.6 888.0
10 16.07 З 3
{4}
н/о н/о +16.6 +4.6 45 +16 +16 1015.5 888.3
11 16.07 З 3
{5}
н/о н/о +17.9 +3.1 37 +18 +18 1014.9 888.3
12 16.07 Ю 3
{5}
н/о н/о +18.2 +4.2 39 +18 +18 1015.0 888.5
14 16.07 З 3
{5}
н/о н/о +19.1 +4.0 37 +20 +20 1014.5 888.5
13 16.07 ЮЗ 3
{5}
н/о н/о +18.5 +3.9 38 +19 +19 1014.8 888.5
15 16.07 СЗ 4
{5}
н/о н/о +18.6 +4.5 39 +19 +19 1014.8 888.6
16 16.07 З 3
{5}
н/о н/о +18.6 +5.1 41 +19 +19 1015.0 888.7
17 16.07 З 3
{5}
н/о н/о +18.7 +5.8 43 +19 +19 1015.1 888.8
18 16.07 З 3
{5}
н/о н/о +17.0 +5.4 46 +17 +17 1016.2 889.1 +11.5 +19.3
20 16.07 СЗ 3
{5}
н/о н/о +15.3 +5.6 52 +15 +15 1017.5 889.5
19 16.07 СЗ 3
{5}
н/о н/о +16.2 +5.4 49 +16 +16 1016.8 889.2
21 16.07 СЗ 3 н/о н/о +14.8 +5.6 54 +14 +14 1018.1 889.8
22 16.07 СЗ 3 н/о н/о +13.7 +5.7 58 +13 +13 1018.8 889.9
23 16.07 СЗ 3 н/о н/о +13.8 +5.8 58 +13 +13 1018.9 890.0
00 17.07 С 2
{6}
н/о н/о +14.2 +6.3 59 +14 +14 1018.8 890.1
02 17.07 СЗ 2
{5}
н/о н/о +14.5 +8.0 65 +14 +14 1018.9 890.3
01 17.07 СЗ 2
{6}
н/о н/о +14.6 +7.3 62 +14 +14 1018.7 890.2
03 17.07 З 2
{5}
н/о н/о +15.8 +8.7 63 +16 +16 1018.4 890.4
04 17.07 С 3
{5}
н/о н/о +15.4 +8.3 63 +15 +15 1018.6 890.5
05 17.07 СЗ 1
{5}
н/о н/о +17.3 +8.3 55 +18 +18 1017.9 890.7
06 17.07 С 1
{5}
н/о н/о +18.2 +8.0 51 +19 +19 1017.6 890.8 +13.3 +18.3
08 17.07 СЗ 2
{5}
н/о н/о +20.3 +7.9 45 +22 +22 комфорт 1016.7 891.0
07 17.07 З 3
{5}
н/о н/о +19.0 +8.0 49 +20 +20 1017.3 890.9
09 17.07 З 2
{4}
н/о н/о +21.3 +8.8 45 +23 +23 комфорт 1016.5 891.2
10 17.07 З 3
{4}
н/о н/о +21.2 +8.1 43 +22 +22 комфорт 1016.6 891.2
11 17.07 З 3
{5}
н/о н/о +21.2 +6.5 38 +22 +22 комфорт 1016.7 891.3
12 17.07 З 4
{5}
н/о н/о +21.0 +5.3 36 +22 +22 комфорт 1016.9 891.4
14 17.07 З 4
{6}
н/о н/о +20.5 +6.1 39 +21 +21 комфорт 1016.9 891.2
13 17.07 З 4
{6}
н/о н/о +22.1 +6.4 36 +23 +23 комфорт 1016.2 891.3
15 17.07 З 4
{5}
н/о н/о +22.5 +5.1 32 +23 +23 комфорт 1015.9 891.1
16 17.07 З 5
{6}
н/о н/о +21.3 +3.9 32 +22 +22 комфорт 1016.4 891.1
17 17.07 З 3
{6}
н/о н/о +21.7 +7.4 40 +23 +23 комфорт 1016.4 891.3
18 17.07 СЗ 3
{6}
н/о н/о +19.9 +8.0 46 +21 +21 комфорт 1017.4 891.3 +18.3 +23.1
20 17.07 СЗ 3
{5}
н/о н/о +17.7 +8.3 54 +18 +18 1018.9 891.7
19 17.07 СЗ 3
{6}
н/о н/о +18.3 +8.4 52 +19 +19 1018.3 891.5
21 17.07 СЗ 3
{5}
н/о н/о +17.7 +8.6 55 +18 +18 1018.9 891.7
22 17.07 СЗ 3
{6}
н/о н/о +16.8 +8.4 58 +17 +17 1019.3 891.7
23 17.07 СЗ 3
{6}
н/о н/о +16.0 +8.4 61 +16 +16 1019.8 891.8
00 18.07 СЗ 3
{6}
н/о н/о +15.0 +8.2 64 +14 +14 1020.3 891.8
02 18.07 СЗ 3
{5}
н/о н/о +14.1 +8.2 68 +13 +13 1020.7 891.7
01 18.07 СЗ 3
{6}
н/о н/о +15.3 +8.4 63 +15 +15 1020.1 891.8
03 18.07 СЗ 3
{5}
н/о н/о +14.4 +8.2 66 +14 +14 1020.3 891.5
04 18.07 СЗ 3
{5}
н/о н/о +14.5 +8.2 66 +14 +14 1020.0 891.3
05 18.07 СЗ 2
{5}
н/о н/о +16.6 +8.4 58 +17 +17 1019.0 891.3
06 18.07 СЗ 3
{5}
н/о н/о +16.9 +8.3 57 +17 +17 1018.8 891.3 +13.7 +20.5
08 18.07 З 2
{4}
н/о н/о +18.1 +8.4 53 +19 +19 1018.1 891.2
07 18.07 СЗ 3
{4}
н/о н/о +17.7 +8.4 54 +18 +18 1018.3 891.2
09 18.07 Ю 3
{5}
н/о н/о +19.6 +9.1 51 +21 +21 комфорт 1017.4 891.2
10 18.07 Ю 3
{7}
н/о н/о +21.0 +9.5 48 +23 +23 комфорт 1016.5 891.0
11 18.07 ЮВ 7
{11}
н/о н/о +21.6 +9.4 46 +23 +23 комфорт 1015.9 890.7
12 18.07 ЮВ 8
{12}
н/о н/о +21.8 +7.8 41 +23 +23 комфорт 1015.6 890.6
14 18.07 Ю 8 н/о н/о +22.1 +7.6 39 +23 +23 комфорт 1014.8 890.0
13 18.07 ЮВ 8 н/о н/о +22.0 +7.0 38 +23 +23 комфорт 1015.0 890.2
15 18.07 Ю 8
{13}
н/о н/о +22.3 +6.5 36 +23 +23 комфорт 1014.4 889.7
16 18.07 Ю 6
{13}
н/о н/о +21.8 +6.9 38 +23 +23 комфорт 1014.3 889.5
17 18.07 Ю 5 н/о н/о +21.7 +7.2 39 +23 +23 комфорт 1014.2 889.3
18 18.07 Ю 5
{9}
н/о н/о +20.8 +6.6 40 +22 +22 комфорт 1014.3 889.1 +16.9 +22.6
20 18.07 Ю 9
{13}
н/о н/о +19.0 +11.3 61 +19 +19 1015.2 889.1
19 18.07 Ю 6
{9}
н/о н/о +19.9 +9.6 51 +21 +21 комфорт 1014.5 888.9
21 18.07 ЮВ 6
{13}
н/о н/о +18.2 +11.1 63 +18 +18 1015.6 889.1
22 18.07 ЮВ 4
{12}
н/о н/о +17.4 +10.8 65 +17 +17 1016.1 889.2
23 18.07 ЮЗ 2
{9}
н/о н/о +16.4 +9.3 63 +17 +17 1016.5 889.1
00 19.07 С 2
{5}
н/о н/о +14.7 +8.9 68 +14 +14 1017.0 888.7
02 19.07 С 2
{5}
н/о н/о +14.3 +8.9 70 +14 +14 1017.1 888.7
01 19.07 СЗ 2
{5}
н/о н/о +14.0 +8.8 71 +14 +14 1017.3 888.7
03 19.07 СЗ 2
{4}
н/о н/о +14.4 +8.9 70 +14 +14 1016.8 888.5
04 19.07 СЗ 2
{4}
н/о н/о +14.6 +8.9 69 +14 +14 1016.8 888.6
05 19.07 СЗ 2
{4}
н/о н/о +16.1 +9.3 64 +16 +16 1015.7 888.2
06 19.07 СЗ 2
{4}
н/о н/о +17.0 +9.8 63 +17 +17 1015.2 888.2 +12.8 +21.2
08 19.07 З 4
{4}
н/о н/о +16.8 +10.1 65 +16 +16 1015.2 888.1
07 19.07 ЮВ 1
{4}
н/о н/о +17.8 +10.5 62 +19 +19 1014.7 888.2
09 19.07 З 3
{5}
н/о н/о +17.9 +10.0 60 +18 +18 1014.7 888.2
10 19.07 ЮВ 7
{10}
н/о н/о +19.5 +9.5 52 +20 +20 1013.5 887.8
11 19.07 Ю 6
{13}
н/о н/о +19.7 +9.1 50 +20 +20 1013.3 887.6
12 19.07 ЮВ 9
{13}
н/о н/о +20.6 +8.4 45 +21 +21 комфорт 1012.4 887.3
14 19.07 СЗ 3
{13}
н/о н/о +17.0 +10.3 65 +17 +17 1014.6 887.7
13 19.07 Ю 9
{13}
н/о н/о +19.5 +8.9 50 +20 +20 1013.4 887.7
15 19.07 СЗ 3
{12}
н/о н/о +16.0 +10.8 71 +16 +16 1015.6 888.1
16 19.07 С 4
{9}
н/о н/о +14.8 +10.1 73 +14 +14 1016.0 887.9
17 19.07 В 1
{9}
н/о н/о +15.5 +10.0 70 +16 +16 1015.7 888.0
18 19.07 Ю 2
{5}
н/о н/о +15.1 +9.8 71 +15 +15 1016.2 888.3 +14.5 +21.6
20 19.07 ЮВ 5
{7}
н/о н/о +15.0 +9.1 68 +14 +14 1016.2 888.2
19 19.07 З 2
{6}
н/о н/о +16.2 +7.6 57 +16 +16 1015.5 888.1
21 19.07 СЗ 3
{7}
н/о н/о +12.5 +8.2 75 +11 +11 1017.7 888.4
22 19.07 СЗ 2
{6}
н/о н/о +12.7 +7.4 70 +12 +12 1017.8 888.6
23 19.07 СЗ 3
{6}
н/о н/о +11.7 +7.5 75 +10 +10 1018.0 888.3
00 20.07 С 2
{4}
н/о н/о +11.8 +7.9 77 +11 +11 1017.7 888.1
02 20.07 СЗ 2
{4}
н/о н/о +11.0 +7.4 78 +10 +10 1017.8 887.9
01 20.07 СЗ 2
{4}
н/о н/о +11.0 +7.4 78 +10 +10 1017.9 887.9
03 20.07 СЗ 2
{4}
н/о н/о +11.0 +7.8 81 +10 +10 1017.6 887.7
04 20.07 СЗ 1
{4}
н/о н/о +12.3 +8.8 79 +12 +12 1016.6 887.3
05 20.07 СЗ 2
{4}
н/о н/о +13.6 +9.2 75 +13 +13 1015.6 887.0
06 20.07 СЗ 1
{3}
н/о н/о +14.5 +9.4 71 +15 +15 1015.2 887.1 +10.2 +16.4
08 20.07 СЗ 2
{4}
н/о н/о +16.2 +10.5 69 +16 +16 1013.9 886.7
07 20.07 СЗ 2
{4}
н/о н/о +15.4 +9.7 69 +15 +15 1014.6 887.0
09 20.07 ЮЗ 2
{4}
н/о н/о +17.4 +10.5 64 +18 +18 1013.3 886.7
10 20.07 ЮВ 5
{8}
н/о н/о +18.0 +10.8 63 +18 +18 1012.5 886.3
11 20.07 Ю 5
{9}
н/о н/о +17.8 +9.7 59 +17 +17 1012.3 886.1
12 20.07 Ю 5
{9}
н/о н/о +18.3 +9.4 56 +18 +18 1012.0 886.0
14 20.07 ЮВ 7
{9}
н/о н/о +19.2 +8.3 49 +19 +19 1011.0 885.5
13 20.07 Ю 3
{9}
н/о н/о +19.3 +8.2 49 +20 +20 1011.3 885.8
15 20.07 Ю 2
{9}
н/о н/о +18.7 +7.8 49 +20 +20 1010.9 885.2
16 20.07 ЮЗ 2
{8}
н/о н/о +18.9 +8.2 50 +20 +20 1010.6 885.0
17 20.07 З 3
{5}
н/о н/о +17.4 +7.9 54 +17 +17 1011.4 885.0
18 20.07 СЗ 3
{6}
н/о н/о +15.6 +8.7 63 +15 +15 1012.2 885.0 +14.1 +20.1
20 20.07 СЗ 4
{8}
н/о н/о +14.2 +7.7 65 +13 +13 1012.9 885.0
19 20.07 СЗ 3
{6}
н/о н/о +15.3 +7.6 60 +15 +15 1012.2 884.8
21 20.07 СЗ 3
{8}
н/о н/о +13.5 +7.1 65 +12 +12 1012.7 884.5
22 20.07 Ю 2
{5}
н/о н/о +15.3 +7.9 61 +15 +15 1012.1 884.7
23 20.07 ЮВ 2
{5}
н/о н/о +13.9 +7.7 66 +13 +13 1012.7 884.7
00 21.07 СЗ 3
{6}
н/о н/о +11.4 +7.6 77 +10 +10 1013.1 883.9
02 21.07 СЗ 3
{5}
н/о н/о +12.1 +6.0 66 +11 +11 1012.3 883.5
01 21.07 С 4
{6}
н/о н/о +11.9 +7.1 72 +10 +10 1012.5 883.6
03 21.07 СЗ 2
{5}
н/о н/о +11.7 +7.2 74 +11 +11 1012.3 883.3
04 21.07 СЗ 3
{5}
н/о н/о +12.2 +7.3 72 +11 +11 1011.9 883.2
05 21.07 СЗ 3
{5}
н/о н/о +13.0 +8.1 72 +12 +12 1011.1 882.9
06 21.07 СЗ 2
{5}
н/о н/о +13.8 +8.9 72 +13 +13 1010.3 882.6 +11.0 +16.1
08 21.07 СЗ 2
{4}
н/о н/о +16.2 +9.7 65 +16 +16 1008.7 882.2
07 21.07 СЗ 2
{4}
н/о н/о +15.4 +9.0 66 +15 +15 1009.4 882.4
09 21.07 ЮВ 4
{6}
н/о н/о +17.4 +9.7 61 +17 +17 1007.7 881.9
10 21.07 ЮВ 4
{7}
н/о н/о +17.0 +9.4 61 +17 +17 1007.9 881.8
11 21.07 Ю 2
{7}
н/о н/о +17.4 +9.4 59 +18 +18 1007.1 881.3
12 21.07 Ю 2
{5}
н/о н/о +18.4 +8.4 52 +19 +19 1005.8 880.6
14 21.07 Ю 4
{11}
н/о н/о +18.0 +7.2 49 +18 +18 1005.5 880.2
13 21.07 Ю 7
{11}
н/о н/о +18.8 +8.4 51 +19 +19 1005.3 880.3
15 21.07 ЮЗ 3
{10}
н/о н/о +17.8 +7.3 50 +18 +18 1005.4 879.9
16 21.07 З 3
{8}
н/о н/о +17.9 +7.5 51 +18 +18 1004.8 879.5
17 21.07 З 4
{10}
н/о н/о +16.7 +8.6 59 +16 +16 1005.3 879.4
18 21.07 СЗ 2
{10}
н/о н/о +15.8 +8.2 61 +16 +16 1005.7 879.3 +13.9 +19.4
20 21.07 Ю 1
{4}
н/о н/о +14.9 +9.8 72 +15 +15 1005.9 879.2
19 21.07 СЗ 2
{6}
н/о н/о +15.6 +8.0 61 +16 +16 1005.8 879.4
21 21.07 СЗ 3
{5}
н/о н/о +13.9 +8.3 69 +13 +13 1006.4 879.1
22 21.07 СЗ 2
{5}
н/о н/о +13.3 +7.9 70 +13 +13 1006.3 878.8
23 21.07 СЗ 3
{5}
н/о н/о +13.5 +7.0 65 +12 +12 1005.7 878.3
00 22.07 С 2
{5}
н/о н/о +13.1 +7.1 67 +12 +12 1005.9 878.4
02 22.07 СЗ 2
{4}
н/о н/о +12.4 +6.4 67 +12 +12 1005.8 878.0
01 22.07 СЗ 2
{4}
н/о н/о +12.1 +6.6 69 +11 +11 1006.1 878.1
03 22.07 ЮВ 1
{4}
н/о н/о +12.4 +7.0 70 +13 +13 1005.9 878.1
04 22.07 СЗ 2
{4}
н/о н/о +12.3 +6.3 67 +12 +12 1005.9 878.0
05 22.07 З 2
{4}
н/о н/о +13.0 +6.8 66 +12 +12 1005.3 877.8
06 22.07 СЗ 2
{4}
н/о н/о +12.6 +7.1 69 +12 +12 1005.3 877.7 +11.8 +15.9
08 22.07 СЗ 2
{4}
н/о н/о +15.4 +8.8 65 +15 +15 1003.7 877.5
07 22.07 СЗ 3
{4}
н/о н/о +13.4 +7.5 67 +12 +12 1004.9 877.6
09 22.07 З 3
{4}
н/о н/о +15.8 +9.1 64 +15 +15 1003.3 877.3
10 22.07 З 2
{5}
н/о н/о +16.8 +9.8 63 +17 +17 1002.5 877.0
11 22.07 З 2 н/о н/о +16.2 +10.1 67 +16 +16 1002.7 877.0
12 22.07 СЗ 2
{5}
н/о н/о +16.5 +9.7 64 +17 +17 1002.3 876.7
14 22.07 Ю 3
{5}
н/о н/о +18.0 +10.0 59 +18 +18 1001.2 876.4
13 22.07 СЗ 3
{5}
н/о н/о +17.0 +9.4 61 +17 +17 1001.7 876.4
15 22.07 З 4
{6}
н/о н/о +17.4 +8.9 57 +17 +17 1001.5 876.4
17 22.07 СЗ 3
{6}
н/о н/о +17.4 +7.9 54 +17 +17 1001.2 876.1
18 22.07 ЮВ 4
{7}
н/о н/о +15.4 +12.0 80 +14 +14 1002.2 876.2 +12.6 +18.7
19 22.07 СЗ 3
{18}
н/о н/о +12.5 +10.5 88 +11 +11 1004.0 876.4
20 22.07 З 5
{18}
н/о н/о +12.3 +8.8 79 +10 +10 1004.4 876.7
21 22.07 ЮЗ 1
{9}
н/о н/о +12.0 +8.9 81 +12 +12 1004.7 876.8
22 22.07 З 6
{9}
н/о н/о +11.5 +7.4 76 +9 +9 1005.2 877.0
23 22.07 СЗ 4
{9}
н/о н/о +11.5 +6.5 71 +9 +9 1004.9 876.8
00 23.07 С 1
{8}
н/о н/о +11.0 +6.4 73 +11 +11 1005.3 876.9

 

Местоположение метеостанции Tarfala (Швеция): широта 67.92 долгота 18.60 высота над уровнем моря 1146 м.

В архиве по умолчанию представлена погода в Tarfala за последнюю неделю. Архивные данные за месяц целиком и за предыдущие месяцы, начиная с января 2011 года, Вы можете получить, выбрав интересующий диапазон дат из раскрывающегося списка и нажав кнопку "Ввод!".


*Определитесь, кто Вы:
робот инопланетянин человек

Внимание! Время в таблицах - всемирное. Для получения местного времени необходимо прибавить поправку, которая в Tarfala равна 1 ч.

Смотрите также архив погоды в соседних городах и на ближайших метеорологических станциях:

Погода в Nikkaluokta (Швеция) (20 км)
Погода в Losistua (Норвегия) (45 км)
Погода в Stora Sjofallet (Швеция) (48 км)
Погода в Ritsem (Швеция) (52 км)
Погода в Rensjon (Швеция) (54 км)
Погода в Katterjakk A (Швеция) (58 км)
Погода в Katterjakk (Швеция) (58 км)
Погода в Straumsnes (Норвегия) (69 км)
Погода в Kiruna (Швеция) (73 км)
Погода в Narvik Lufthavn (Норвегия) (76 км)

Пояснения к столбцам:

Ветер - указаны скорость ветра в м/с - средняя за 10 мин, порывы в срок и между сроками (в фигурных скобках) и направление, откуда дует ветер: С - северный, СВ - северо-восточный, В - восточный, ЮВ - юго-восточный, Ю - южный, ЮЗ - юго-западный, З - западный, СЗ - северо-западный.
Видимость - горизонтальная дальность видимости в метрах или километрах. При видимости от 1 до 10 км при отсутствии осадков обычно наблюдается дымка, при ухудшении видимости до 1 км и менее - туман. В сухую погоду видимость может ухудшаться дымом, пылью или мглою.
Явления - указаны атмосферные явления, наблюдавшиеся в срок или в последний час перед сроком; фигурными скобками обозначены явления, наблюдавшиеся между сроками (за 1-3 часа до срока); квадратными скобками обозначены град или гололедные отложения с указанием их диаметра в мм.
Облачность - указаны через наклонную черту общая и нижняя облачность в баллах и высота нижней границы облаков в метрах; квадратными скобками обозначены формы облаков: Ci - перистые, Cs - перисто-слоистые, Cc - перисто-кучевые, Ac - высококучевые, As - высокослоистые, Sc - слоисто-кучевые, Ns - слоисто-дождевые, Cu - кучевые, Cb - кучево-дождевые. Подробнее классификацию облаков см. в Атласе облаков (PDF).
T - Температура воздуха - температура, измеренная на высоте 2 м над землей.
Td - Температура точки росы - температура, при понижении до которой содержащийся в воздухе водяной пар достигнет насыщения.
f - Относительная влажность воздуха - влажноcть воздуха, измеренная на высоте 2 м над землей.
Te - Эффективная температура - температура, которую ощущает одетый по сезону человек в тени. Характеристика душности погоды. При расчете учитывается влияние влажности воздуха и скорости ветра на теплоощущения человека.
Tes - Эффективная температура на солнце - температура, которую ощущает человек, с поправкой на солнечный нагрев. Характеристика знойности погоды. Зависит от высоты солнца над горизонтом, облачности и скорости ветра. Ночью, в пасмурную погоду, а также при ветре 12 м/с и более поправка равна нулю.
P - Атмосферное давление - приведенное к уровню моря атмосферное давление.
Po - Атмосферное давление - измеренное на уровне метеостанции атмосферное давление.
Tmin - Минимальная температура - минимум температуры воздуха на высоте 2 м над землей.
Tmax - Максимальная температура - максимум температуры воздуха на высоте 2 м над землей.
R - Количество осадков - Количество выпавших осадков за период времени, мм. При наведении курсора мыши на число - период времени, за который выпало указанное количество осадков.
R24 - Количество осадков - Количество выпавших осадков за 24 часа, мм.
S - Снежный покров - Высота снежного покрова, см. При наведении курсора мыши на число - состояние снежного покрова и степень покрытия местности в баллах.